Regional Weather Roundup
Issued by NWS

Home | Current Version | Previous Version | Text Only | Print | Product List | Glossary On
Versions: 1 2 3 4 5 6 7 8 9 10 11 12 13 14 15 16 17 18 19 20 21 22 23 24 25 26 27 28 29 30 31 32 33 34 35 36 37 38 39 40 41 42 43 44 45 46 47 48 49 50
000
ASUS43 KLSX 020907
RWRMO

WEATHER SUMMARY FOR MISSOURI
NATIONAL WEATHER SERVICE SPRINGFIELD MO
400 AM CDT THU APR 02 2015

NOTE: "FAIR" INDICATES FEW OR NO CLOUDS BELOW 12,000 FEET WITH NO
       SIGNIFICANT WEATHER AND/OR OBSTRUCTIONS TO VISIBILITY.
       CURRENT SKY AND/OR WEATHER CONDITIONS ARE NOT AVAILABLE FOR
       CHILLICOTHE AND FARMINGTON.

MOZ001>031-035>038-043-044-053-054-021000-
...NORTHERN AND WESTERN MISSOURI...

CITY           SKY/WX    TMP DP  RH WIND       PRES   REMARKS
KANSAS CTY INT RAIN      58  55  90 N10       29.70R FOG
KANSAS C DTWN  TSTM      65  60  84 NE8       29.65S
LEE`S SUMMIT   CLOUDY    65  59  81 N10       29.67R
ST JOSEPH      RAIN      57  54  89 N12       29.72R FOG
CHILLICOTHE      N/A     60  54  80 N12       29.71R
KIRKSVILLE     CLOUDY    61  58  90 S15G22    29.65F

$$
MOZ066>068-077>081-088>096-101>105-021000-
...SOUTHWEST MISSOURI...

CITY           SKY/WX    TMP DP  RH WIND       PRES   REMARKS
SPRINGFIELD    PTCLDY    60  56  86 S17       29.71F
JOPLIN         PTCLDY    66  60  81 S23G35    29.69S

$$
MOZ032>034-039>042-045>050-055>058-069>072-021000-
...CENTRAL MISSOURI...

CITY           SKY/WX    TMP DP  RH WIND       PRES   REMARKS
COLUMBIA       MOCLDY    61  56  83 S18G25    29.67F
JEFFERSON CITY PTCLDY    62  55  77 SE9       29.69F
ROLLA          CLOUDY    62  55  77 S17G24    29.73F
WHITEMAN AFB   MOCLDY    62  58  89 S20       29.60F
WARRENSBURG    PTCLDY    61  55  82 SW7G18    29.63R
OSAGE BEACH    CLEAR     61  54  77 SE6       29.70F

$$
MOZ051-052-059>065-021000-
...EAST CENTRAL MISSOURI...

CITY           SKY/WX    TMP DP  RH WIND       PRES   REMARKS
ST LOUIS INTL  PTCLDY    66  54  65 S16G25    29.75F
SPIRIT OF STL  CLEAR     65  54  67 S10G18    29.74F
ST CHARLES     CLEAR     62  53  72 S8        29.74F

$$
MOZ072>076-082>087-097>100-106>115-021000-
...SOUTH CENTRAL AND SOUTHEAST MISSOURI...

CITY           SKY/WX    TMP DP  RH WIND       PRES   REMARKS
CAPE GIRARDEAU CLOUDY    62  58  86 S13       29.85F
FARMINGTON     MOCLDY    61  55  82 S14       29.85F
POPLAR BLUFF   LGT RAIN  61  57  87 SW7       29.84F
WEST PLAINS    CLEAR     59  56  89 S8        29.83F

$$


USA.gov is the U.S. government's official web portal to all federal, state and local government web resources and services.